Location: Goettingen
(51.5300°N, 9.9433°E)
Time: 15:02:24
(UTC+02:00)

ISS - Pass Details

Date: 25 September 2022
Orbit: 414 x 417 km, 51.6° (Epoch: 28 September)

Event Time Altitude Azimuth Distance (km) Brightness Sun altitude
Rises 20:31:15 0° 274° (W) 2,362 1.9 -13.1°
Reaches altitude 10° 20:33:21 10° 274° (W) 1,498 0.4 -13.4°
Maximum altitude 20:36:43 88° 4° (N) 424 -3.8 -13.9°
Enters shadow 20:38:20 28° 93° (E) 811 -2.9 -14.1°
